timestamp,wind_dir_avg,wind_spd_avg,wind_spd_max_dir,wind_spd_gust,battery_voltage,lat,long
2023-06-12 00:04:00+00:00,327.0,12.83,323.0,16.34,12.97,47.59359,-54.27349
2023-06-12 00:14:00+00:00,326.0,9.67,322.0,12.66,12.49,47.59359,-54.27349
2023-06-12 00:24:00+00:00,328.0,11.25,327.0,12.67,12.49,47.59359,-54.27349
2023-06-12 00:34:00+00:00,327.0,10.22,307.0,13.27,12.49,47.59359,-54.27349
2023-06-12 00:44:00+00:00,326.0,13.56,323.0,15.65,12.49,47.59359,-54.27349
2023-06-12 00:54:00+00:00,329.0,12.88,330.0,14.47,12.49,47.59359,-54.27349
2023-06-12 01:04:00+00:00,328.0,12.46,329.0,15.33,12.49,47.59359,-54.27349
2023-06-12 01:14:00+00:00,328.0,12.63,324.0,15.29,12.41,47.59359,-54.27349
2023-06-12 01:24:00+00:00,326.0,11.9,327.0,14.09,12.41,47.59359,-54.27349
2023-06-12 01:34:00+00:00,323.0,11.78,323.0,13.29,12.41,47.59359,-54.27349
2023-06-12 01:44:00+00:00,326.0,12.98,331.0,15.83,12.41,47.59359,-54.27349
2023-06-12 01:54:00+00:00,328.0,14.15,331.0,17.29,12.41,47.59359,-54.27349
2023-06-12 02:04:00+00:00,334.0,11.09,329.0,13.06,12.41,47.59359,-54.27349
2023-06-12 02:14:00+00:00,332.0,13.65,327.0,15.93,12.41,47.59359,-54.27349
2023-06-12 02:24:00+00:00,334.0,14.21,336.0,18.37,12.41,47.59359,-54.27349
2023-06-12 02:34:00+00:00,333.0,13.34,327.0,16.58,12.41,47.59359,-54.27349
2023-06-12 02:44:00+00:00,340.0,15.3,342.0,18.21,12.41,47.59359,-54.27349
2023-06-12 02:54:00+00:00,338.0,11.78,335.0,14.55,12.41,47.59359,-54.27349
2023-06-12 03:04:00+00:00,338.0,12.96,329.0,15.39,12.41,47.59359,-54.27349
2023-06-12 03:14:00+00:00,338.0,12.55,330.0,14.91,12.33,47.59359,-54.27349
2023-06-12 03:24:00+00:00,339.0,13.21,332.0,15.15,12.33,47.59359,-54.27349
2023-06-12 03:34:00+00:00,333.0,11.99,337.0,13.83,12.33,47.59359,-54.27349
2023-06-12 03:44:00+00:00,341.0,17.14,341.0,19.86,12.33,47.59359,-54.27349
2023-06-12 03:54:00+00:00,340.0,12.31,343.0,15.7,12.33,47.59359,-54.27349
2023-06-12 04:04:00+00:00,337.0,13.2,340.0,16.0,12.33,47.59359,-54.27349
2023-06-12 04:14:00+00:00,337.0,13.4,344.0,15.4,12.33,47.59359,-54.27349
2023-06-12 04:24:00+00:00,336.0,16.88,327.0,19.98,12.33,47.59359,-54.27349
2023-06-12 04:34:00+00:00,342.0,15.89,340.0,19.69,12.33,47.59359,-54.27349
2023-06-12 04:44:00+00:00,338.0,12.01,343.0,15.83,12.33,47.59359,-54.27349
2023-06-12 04:54:00+00:00,335.0,14.26,329.0,18.75,12.33,47.59359,-54.27349
2023-06-12 05:04:00+00:00,344.0,12.94,349.0,15.57,12.33,47.59359,-54.27349
2023-06-12 05:14:01+00:00,350.0,11.98,348.0,14.42,12.33,47.59359,-54.27349
2023-06-12 05:24:01+00:00,348.0,12.42,355.0,15.34,12.33,47.59359,-54.27349
2023-06-12 05:34:01+00:00,344.0,11.28,342.0,13.22,12.33,47.59359,-54.27349
2023-06-12 05:44:01+00:00,343.0,8.96,344.0,11.17,12.33,47.59359,-54.27349
2023-06-12 05:54:01+00:00,343.0,13.62,345.0,15.62,12.33,47.59359,-54.27349
2023-06-12 06:04:01+00:00,339.0,13.23,340.0,15.49,12.33,47.59359,-54.27349
2023-06-12 06:14:01+00:00,344.0,14.1,348.0,17.6,12.33,47.59359,-54.27349
2023-06-12 06:24:01+00:00,337.0,13.94,340.0,17.25,12.33,47.59359,-54.27349
2023-06-12 06:34:01+00:00,340.0,17.44,344.0,21.46,12.33,47.59359,-54.27349
2023-06-12 06:44:01+00:00,349.0,13.29,340.0,16.11,12.33,47.59359,-54.27349
2023-06-12 06:54:01+00:00,343.0,10.65,343.0,13.11,12.33,47.59359,-54.27349
2023-06-12 07:04:01+00:00,339.0,13.67,330.0,17.97,12.33,47.59359,-54.27349
2023-06-12 07:14:00+00:00,342.0,11.82,345.0,14.96,12.25,47.59359,-54.27349
2023-06-12 07:24:00+00:00,344.0,12.75,339.0,14.54,12.25,47.59359,-54.27349
2023-06-12 07:34:00+00:00,349.0,14.89,356.0,17.35,12.25,47.59359,-54.27349
2023-06-12 07:44:00+00:00,347.0,12.57,338.0,14.57,12.25,47.59359,-54.27349
2023-06-12 07:54:00+00:00,345.0,14.54,335.0,18.15,12.25,47.59359,-54.27349
2023-06-12 08:04:00+00:00,352.0,13.0,347.0,15.18,12.25,47.59359,-54.27349
2023-06-12 08:14:01+00:00,9.0,7.4,1.0,9.84,12.25,47.59359,-54.27349
2023-06-12 08:24:01+00:00,0.0,9.17,7.0,10.64,12.25,47.59359,-54.27349
2023-06-12 08:34:01+00:00,347.0,11.74,357.0,14.03,12.25,47.59359,-54.27349
2023-06-12 08:44:01+00:00,348.0,12.39,343.0,15.66,12.25,47.59359,-54.27349
2023-06-12 08:54:01+00:00,348.0,12.66,343.0,15.04,12.25,47.59359,-54.27349
2023-06-12 09:04:01+00:00,350.0,10.63,357.0,13.13,12.25,47.59359,-54.27349
2023-06-12 09:14:00+00:00,342.0,13.95,344.0,17.75,12.33,47.59359,-54.27349
2023-06-12 09:24:00+00:00,342.0,13.99,343.0,16.75,12.33,47.59359,-54.27349
2023-06-12 09:34:00+00:00,342.0,17.24,345.0,21.14,12.33,47.59359,-54.27349
2023-06-12 09:44:00+00:00,342.0,12.35,333.0,15.53,12.33,47.59359,-54.27349
2023-06-12 09:54:00+00:00,341.0,13.92,340.0,15.91,12.33,47.59359,-54.27349
2023-06-12 10:04:00+00:00,358.0,12.53,352.0,14.09,12.33,47.59359,-54.27349
2023-06-12 10:14:00+00:00,355.0,12.51,357.0,14.53,12.41,47.59359,-54.27349
2023-06-12 10:24:00+00:00,355.0,12.87,342.0,14.98,12.41,47.59359,-54.27349
2023-06-12 10:34:00+00:00,344.0,11.79,358.0,13.57,12.41,47.59359,-54.27349
2023-06-12 10:44:00+00:00,353.0,13.45,339.0,15.11,12.41,47.59359,-54.27349
2023-06-12 10:54:00+00:00,341.0,11.76,337.0,14.82,12.41,47.59359,-54.27349
2023-06-12 11:04:00+00:00,346.0,14.54,341.0,16.74,12.41,47.59359,-54.27349
2023-06-12 11:14:00+00:00,342.0,14.74,339.0,17.25,12.65,47.59359,-54.27349
2023-06-12 11:24:00+00:00,346.0,13.59,339.0,16.0,12.65,47.59359,-54.27349
2023-06-12 11:34:00+00:00,349.0,14.11,338.0,17.04,12.65,47.59359,-54.27349
2023-06-12 11:44:00+00:00,350.0,15.39,341.0,17.72,12.65,47.59359,-54.27349
2023-06-12 11:54:00+00:00,359.0,10.26,356.0,12.35,12.65,47.59359,-54.27349
2023-06-12 12:04:00+00:00,359.0,9.88,358.0,12.03,12.65,47.59359,-54.27349
2023-06-12 12:14:00+00:00,348.0,12.04,340.0,14.32,12.81,47.59359,-54.27349
2023-06-12 12:24:00+00:00,350.0,10.11,358.0,13.11,12.81,47.59359,-54.27349
2023-06-12 12:34:00+00:00,341.0,11.71,336.0,14.56,12.81,47.59359,-54.27349
2023-06-12 12:44:00+00:00,342.0,9.32,329.0,10.91,12.81,47.59359,-54.27349
2023-06-12 12:54:00+00:00,336.0,11.34,335.0,13.21,12.81,47.59359,-54.27349
2023-06-12 13:04:00+00:00,345.0,8.82,333.0,10.44,12.81,47.59359,-54.27349
2023-06-12 13:14:00+00:00,349.0,8.86,332.0,10.53,13.05,47.59359,-54.27349
2023-06-12 13:24:00+00:00,354.0,10.36,355.0,13.28,13.05,47.59359,-54.27349
2023-06-12 13:34:00+00:00,343.0,11.25,337.0,12.83,13.05,47.59359,-54.27349
2023-06-12 13:44:00+00:00,359.0,10.17,1.0,11.31,13.05,47.59359,-54.27349
2023-06-12 13:54:00+00:00,354.0,12.14,339.0,13.8,13.05,47.59359,-54.27349
2023-06-12 14:04:00+00:00,357.0,10.66,358.0,12.51,13.05,47.59359,-54.27349
2023-06-12 14:14:00+00:00,358.0,10.55,359.0,11.64,13.53,47.59359,-54.27349
2023-06-12 14:24:00+00:00,351.0,10.64,346.0,12.22,13.53,47.59359,-54.27349
2023-06-12 14:34:00+00:00,350.0,10.11,336.0,12.76,13.53,47.59359,-54.27349
2023-06-12 14:44:00+00:00,357.0,9.17,357.0,10.69,13.53,47.59359,-54.27349
2023-06-12 14:54:00+00:00,341.0,11.46,336.0,13.49,13.53,47.59359,-54.27349
2023-06-12 15:04:00+00:00,353.0,10.02,357.0,10.86,13.53,47.59359,-54.27349
2023-06-12 15:14:00+00:00,343.0,10.21,342.0,11.84,13.6,47.59359,-54.27349
2023-06-12 15:24:00+00:00,0.0,9.75,1.0,11.08,13.6,47.59359,-54.27349
2023-06-12 15:34:00+00:00,355.0,9.51,355.0,10.99,13.6,47.59359,-54.27349
2023-06-12 15:44:00+00:00,0.0,9.68,358.0,11.16,13.6,47.59359,-54.27349
2023-06-12 15:54:00+00:00,350.0,9.75,348.0,10.98,13.6,47.59359,-54.27349
2023-06-12 16:04:00+00:00,355.0,10.17,353.0,11.35,13.6,47.59359,-54.27349
2023-06-12 16:14:00+00:00,4.0,9.36,4.0,11.02,13.53,47.59359,-54.27349
2023-06-12 16:24:00+00:00,348.0,8.59,357.0,9.75,13.53,47.59359,-54.27349
2023-06-12 16:34:00+00:00,359.0,10.35,359.0,11.33,13.53,47.59359,-54.27349
2023-06-12 16:44:00+00:00,355.0,10.38,353.0,11.74,13.53,47.59359,-54.27349
2023-06-12 16:54:00+00:00,349.0,8.45,342.0,9.46,13.53,47.59359,-54.27349
2023-06-12 17:04:00+00:00,356.0,9.9,359.0,11.72,13.53,47.59359,-54.27349
2023-06-12 17:14:00+00:00,350.0,9.59,349.0,11.2,13.68,47.59359,-54.27349
2023-06-12 17:24:00+00:00,356.0,10.1,357.0,12.64,13.68,47.59359,-54.27349
2023-06-12 17:34:00+00:00,346.0,9.43,339.0,10.93,13.68,47.59359,-54.27349
2023-06-12 17:44:00+00:00,354.0,10.15,358.0,11.93,13.68,47.59359,-54.27349
2023-06-12 17:54:00+00:00,358.0,9.45,0.0,11.2,13.68,47.59359,-54.27349
2023-06-12 18:04:00+00:00,353.0,10.08,0.0,11.37,13.68,47.59359,-54.27349
2023-06-12 18:14:00+00:00,356.0,8.01,354.0,10.32,13.68,47.59359,-54.27349
2023-06-12 18:24:00+00:00,355.0,8.83,354.0,9.66,13.68,47.59359,-54.27349
2023-06-12 18:34:00+00:00,349.0,9.06,351.0,10.01,13.68,47.59359,-54.27349
2023-06-12 18:44:00+00:00,352.0,8.95,345.0,9.94,13.68,47.59359,-54.27349
2023-06-12 18:54:00+00:00,358.0,8.81,1.0,9.43,13.68,47.59359,-54.27349
2023-06-12 19:04:00+00:00,353.0,9.86,352.0,11.21,13.68,47.59359,-54.27349
2023-06-12 19:14:01+00:00,356.0,10.35,350.0,11.86,13.68,47.59359,-54.27349
2023-06-12 19:24:01+00:00,358.0,9.64,357.0,11.03,13.68,47.59359,-54.27349
2023-06-12 19:34:01+00:00,347.0,8.22,347.0,9.58,13.68,47.59359,-54.27349
2023-06-12 19:44:01+00:00,348.0,9.39,343.0,10.41,13.68,47.59359,-54.27349
2023-06-12 19:54:01+00:00,341.0,11.65,337.0,13.87,13.68,47.59359,-54.27349
2023-06-12 20:04:01+00:00,354.0,10.59,352.0,11.72,13.68,47.59359,-54.27349
2023-06-12 20:14:01+00:00,348.0,9.4,345.0,10.76,13.37,47.59359,-54.27349
2023-06-12 20:24:01+00:00,346.0,11.19,344.0,12.11,13.37,47.59359,-54.27349
2023-06-12 20:34:01+00:00,343.0,11.85,339.0,13.71,13.37,47.59359,-54.27349
2023-06-12 20:44:01+00:00,349.0,8.83,347.0,10.14,13.37,47.59359,-54.27349
2023-06-12 20:54:01+00:00,348.0,9.24,349.0,10.0,13.37,47.59359,-54.27349
2023-06-12 21:04:01+00:00,354.0,12.08,351.0,13.22,13.37,47.59359,-54.27349
2023-06-12 21:14:00+00:00,355.0,12.05,355.0,13.6,13.21,47.59359,-54.27349
2023-06-12 21:24:00+00:00,355.0,11.15,353.0,12.77,13.21,47.59359,-54.27349
2023-06-12 21:34:00+00:00,353.0,11.69,352.0,13.45,13.21,47.59359,-54.27349
2023-06-12 21:44:00+00:00,352.0,10.77,348.0,12.61,13.21,47.59359,-54.27349
2023-06-12 21:54:00+00:00,355.0,9.57,358.0,10.69,13.21,47.59359,-54.27349
2023-06-12 22:04:00+00:00,353.0,8.38,359.0,9.71,13.21,47.59359,-54.27349
2023-06-12 22:14:00+00:00,353.0,9.56,347.0,11.26,12.97,47.59359,-54.27349
2023-06-12 22:24:00+00:00,347.0,11.23,346.0,13.14,12.97,47.59359,-54.27349
2023-06-12 22:34:00+00:00,357.0,9.29,352.0,10.32,12.97,47.59359,-54.27349
2023-06-12 22:44:00+00:00,346.0,8.08,347.0,9.22,12.97,47.59359,-54.27349
2023-06-12 22:54:00+00:00,346.0,6.45,345.0,7.61,12.97,47.59359,-54.27349
2023-06-12 23:04:00+00:00,348.0,6.78,345.0,9.25,12.97,47.59359,-54.27349
2023-06-12 23:14:00+00:00,346.0,8.09,343.0,9.2,12.49,47.59359,-54.27349
2023-06-12 23:24:00+00:00,352.0,6.31,350.0,7.41,12.49,47.59359,-54.27349
2023-06-12 23:34:00+00:00,357.0,5.24,350.0,6.13,12.49,47.59359,-54.27349
2023-06-12 23:44:00+00:00,354.0,5.79,353.0,6.62,12.49,47.59359,-54.27349
2023-06-12 23:54:00+00:00,342.0,6.98,343.0,7.66,12.49,47.59359,-54.27349
